ARIANE 42P DEB, 44510

Orbit data source: Space-Track

ARIANE 42P DEB, 44510 is space debris in LEO originally from a launch on Mon, 10 Aug 1992 UTC launched from the French Guiana (FRGUI). Debris objects in space refer to the collection of defunct objects orbiting the Earth. Examples of debris include non-operational satellites, rocket bodies, and fragments generated from explosions, collisions, or faulty payload assembly.

Loading next visibility...
ARIANE 42P DEB details
Identifier
44510, 1992-052H
Orbit
LEO
Last TLE update1 day ago
Origin
Flag of FRArianespace (FR)
ManufacturerArianeGroup
MissionSpacecraft
Bus & MotorUnknown
MassUnknown
Launch date (UTC)
1992-08-10 (32 years ago)
Launch vehicleUnknown
Launch site
French Guiana (FRGUI)
Object type
Payload
Rocket body
Debris
Shape & HBRUnknown
Radar Cross SectionSmall (<0.1 m²)

Expand to show TLE details & history

TLE from 1 day ago
0 ARIANE 42P DEB
1 44510U 92052H   24359.97760138  .00001257  00000-0  56633-2 0  9996
2 44510  66.0599 338.6535 0080952 196.6841 163.1509 12.80638920250509
Epoch: 2024-12-24T23:27Z
Definitive object data (Epoch: 2024-12-24T23:27:44.759Z)
Latitude0.00004°
Longitude-107.26094°
Altitude1,400.65 km
Speed7.132 km/s
True Right ascension22h 34m 36s
True Declination0° 00' 00"
Sunlit
Object was in daylight at TLE epoch
Visualization TLE readout
Latitude-5.03249°
Longitude71.9694°
Altitude1,280.176 km
Speed7.245 km/s
Apparent Right ascension12h 06m 37s
Apparent Declination-56° 13' 58"
Sunlit
Object is in daylight
Visualization observer readout
Local Sidereal Time09:31:05
Azimuth159.131° S
Elevation-11.629°
Doppler factor1
Orbital elements
Apogee altitude1,399.922 km
Perigee altitude1,275.004 km
Semi-major axis7,715.6 km
Eccentricity0.0080952
Inclination66.0599°
RAAN338.6535°
Arg. of periapsis196.6841°
True anomaly163.4172°
Mean anomaly163.1509°
Eccentric anomaly163.28431°
Mean motion3.2025 °/min
BSTAR0.0056633
Orbital period112.41 mins
Loading maneuver chart data...
Loading historical data...
Loading historical data...
Loading historical data...
Loading historical data...
Loading historical data...
Loading historical data...
Loading historical data...

ARIANE 42P DEB Visibility forecast

Observer location: undefined°, undefined

Span
Click to sort rows by Start time (UTC) header in descending order
Start Az.
Max El. time (UTC)
Max El. Az.
Max El.
End time (UTC)
End Az.
9 mins2024-12-26 22:26:56.633Z134.12° SE2024-12-26 22:30:56.633Z101.202° ESE18.902°2024-12-26 22:35:56.633Z62.421° ENE
15 mins2024-12-27 00:18:56.633Z210.562° SW2024-12-27 00:25:56.633Z326.157° NNW44.905°2024-12-27 00:33:56.633Z29.538° NE
11 mins2024-12-27 02:17:56.633Z278.37° WNW2024-12-27 02:22:56.633Z321.143° NNW22.318°2024-12-27 02:28:56.633Z10.645° NNE
6 mins2024-12-27 06:20:56.633Z4.369° NNE2024-12-27 06:22:56.633Z19.818° NNE13.521°2024-12-27 06:26:56.633Z50.591° ENE
13 mins2024-12-27 08:15:56.633Z345.158° N2024-12-27 08:21:56.633Z50.616° ENE34.806°2024-12-27 08:28:56.633Z119.33° SE
|